GFSSE_925_thetae_273.txt.gz
Theta_e
330 332 336 336 338 337 336 336 337 336 336 337 334 334 335 335 334 335 334 336 335 334 334 331 334 336 332 331 332 332 332 331 330 327 326 327 326 325 327 329 329 328 326
324 331 334 337 332 337 337 337 336 336 335 336 336 336 335 335 335 333 334 336 335 332 332 333 334 332 330 328 327 329 325 322 323 322 326 328 326 325 328 329 328 326 323
328 333 337 337 334 333 334 335 335 335 335 335 336 336 337 337 335 334 334 333 333 334 332 331 330 330 329 327 327 328 324 323 324 324 325 327 328 325 326 326 326 323 321
325 334 336 336 335 334 333 334 335 334 335 335 334 336 337 335 334 333 333 332 332 333 331 329 328 328 326 328 328 328 325 324 326 326 324 323 323 324 324 323 323 322 322
326 331 334 335 336 335 335 334 332 332 333 333 333 336 335 336 333 332 333 332 332 334 331 329 327 326 325 328 327 327 325 324 327 327 326 324 324 322 322 322 322 321 321
324 327 330 333 335 335 335 332 331 329 330 331 329 331 335 335 332 332 332 332 331 333 331 328 327 327 326 326 326 325 323 322 323 325 324 323 322 322 321 321 321 320 320
322 324 325 329 333 334 334 329 330 329 331 333 333 328 325 334 333 331 331 332 331 331 330 329 326 325 325 325 324 323 322 322 322 320 322 323 323 326 324 322 321 319 319
319 321 322 323 326 330 331 332 331 330 330 330 331 333 334 331 332 333 332 332 331 330 329 328 326 325 324 323 319 321 322 319 319 320 321 322 322 322 325 324 321 319 319
316 319 320 321 321 323 327 330 330 330 328 328 329 332 331 332 331 331 331 332 331 330 329 328 326 326 324 319 315 315 315 319 319 320 320 321 322 321 322 321 320 319 318
313 313 315 318 320 321 322 323 325 328 328 328 327 330 331 328 329 330 330 331 331 330 328 327 325 324 320 315 314 313 314 318 319 319 322 322 321 320 319 319 318 317 316
313 313 310 314 315 319 321 321 321 320 327 329 328 328 326 325 330 331 331 331 330 330 329 326 326 319 318 316 315 315 318 319 319 318 319 321 320 320 319 318 318 317 317
309 311 309 310 313 314 317 321 321 323 322 324 329 329 328 325 329 332 332 331 331 330 324 321 324 321 319 319 316 317 318 318 318 318 319 318 319 319 318 317 316 315 314
307 307 307 308 311 312 315 317 321 320 322 322 325 328 328 325 329 331 331 331 330 329 324 320 323 323 323 321 319 319 318 319 318 318 317 314 318 319 318 317 316 314 315
304 305 305 306 307 309 313 316 319 320 320 321 321 328 327 326 329 331 332 331 330 328 322 322 324 324 324 322 320 319 319 319 319 318 317 314 316 318 319 319 319 318 318
303 303 302 302 304 305 309 313 316 318 320 321 322 323 327 327 328 330 331 331 330 327 325 324 324 325 323 321 320 320 319 319 319 319 319 317 315 316 319 321 322 323 323
302 302 301 300 302 303 307 310 314 317 318 320 324 325 323 326 328 330 331 330 329 327 325 323 321 322 322 321 321 320 320 319 319 319 319 319 317 316 316 316 319 321 321
301 301 301 300 300 301 304 307 311 315 318 319 325 326 326 325 328 329 330 329 329 326 324 322 321 321 320 320 321 320 320 320 319 319 319 319 319 318 317 318 318 318 318
300 300 301 301 300 300 302 306 308 314 317 319 325 327 325 323 327 328 329 329 328 327 326 324 321 320 320 320 321 322 322 322 321 320 319 319 319 319 319 319 319 318 317
299 300 301 301 301 301 302 305 311 313 315 318 324 326 325 325 326 327 328 329 327 326 325 323 321 319 320 321 322 323 323 323 323 322 321 321 320 320 319 320 319 318 317
298 298 300 300 301 300 301 303 309 311 314 316 317 325 324 324 325 326 327 327 328 326 325 322 321 321 322 322 322 322 323 323 323 323 323 322 321 320 320 320 319 319 317
298 298 298 299 300 300 300 300 303 305 309 311 315 320 324 324 325 326 326 325 325 326 325 323 322 322 321 321 322 322 321 321 324 323 322 322 321 320 319 319 318 317 315
298 297 297 298 299 299 299 298 298 301 306 307 310 315 322 324 324 326 326 325 325 325 326 325 323 323 323 323 323 323 324 322 322 317 316 316 317 317 316 316 315 313 314
297 297 296 297 297 298 298 298 299 302 304 307 307 310 318 320 323 324 324 325 326 326 326 324 325 325 324 323 324 323 322 321 318 317 316 315 316 316 315 313 312 313 313
297 296 296 296 297 297 297 298 298 297 299 300 301 304 312 315 319 322 323 325 325 325 325 325 324 323 324 323 323 322 321 321 321 320 318 316 316 318 316 315 314 313 312
296 296 296 296 297 297 297 297 297 298 298 299 300 303 307 311 315 319 322 323 324 324 325 325 323 325 324 323 322 321 321 321 320 320 320 318 316 315 313 312 311 310 308
296 295 296 296 297 296 296 296 297 297 298 298 299 301 305 307 311 315 319 321 323 325 323 324 323 324 323 322 322 321 321 321 320 320 320 319 316 308 308 307 306 305 303

GFSSE_925_thetae_276.txt.gz
Theta_e
328 330 332 335 336 336 336 336 336 334 333 333 332 335 335 335 334 334 334 334 334 334 332 335 336 334 334 334 333 333 331 329 327 326 328 326 328 331 329 329 326 325 324
322 329 336 336 335 335 336 335 336 335 334 334 334 336 336 334 334 333 334 334 334 333 335 336 334 332 331 330 330 330 324 321 321 325 324 325 328 330 330 328 325 323 322
325 330 335 337 337 335 335 335 335 335 333 333 332 334 336 334 333 332 334 333 332 332 333 331 330 329 329 328 327 324 322 323 325 328 326 324 325 327 326 326 322 321 322
324 327 331 335 337 334 331 334 334 335 333 333 332 334 335 336 333 333 333 332 333 333 330 329 330 329 328 329 325 324 324 323 324 324 324 323 325 325 324 324 323 323 321
323 324 327 332 335 336 333 332 333 334 332 332 332 332 334 334 333 333 332 332 332 332 330 328 329 327 328 328 327 324 325 326 327 324 322 322 321 322 324 322 322 321 321
321 323 323 326 329 333 335 335 333 332 333 332 332 333 334 335 332 332 332 332 332 331 330 329 326 326 328 327 326 323 325 325 324 323 322 321 321 322 322 322 320 319 320
319 321 322 323 324 325 330 332 330 329 332 331 330 330 334 333 332 332 331 331 331 330 329 328 328 327 326 326 325 322 322 321 320 322 322 321 326 325 322 322 320 319 319
316 317 320 322 322 323 324 329 330 330 330 330 331 332 329 332 332 331 331 331 331 330 329 328 326 325 325 324 323 322 321 319 320 321 321 321 321 326 325 322 319 319 318
314 315 317 319 322 322 322 326 329 330 329 329 329 328 330 330 330 331 330 331 331 330 329 327 326 323 322 317 320 321 319 319 320 321 321 319 319 323 323 321 319 319 318
313 313 313 315 318 320 321 322 325 328 328 328 327 328 329 331 330 329 330 331 331 329 329 326 324 322 320 314 313 313 318 319 319 321 322 321 320 320 320 319 317 317 316
310 310 310 312 314 317 318 321 322 323 327 327 328 328 329 329 327 329 330 331 331 330 328 325 324 320 316 314 313 313 318 318 319 319 319 320 320 320 319 318 318 317 315
307 308 307 309 311 315 317 317 321 322 323 324 327 328 328 327 325 329 330 331 331 330 327 325 325 317 316 315 316 318 318 318 318 318 318 319 320 319 318 317 314 312 313
305 305 304 305 307 310 314 316 317 321 321 321 323 326 329 328 325 331 330 331 331 330 324 323 324 320 320 318 316 318 318 318 318 317 315 315 317 319 318 316 316 316 317
304 303 303 302 304 306 310 313 315 317 320 321 320 323 324 327 325 329 331 331 330 328 324 323 320 319 322 320 319 319 318 319 318 318 317 314 315 317 319 319 319 319 320
302 303 302 302 301 303 305 310 312 315 316 318 319 321 322 324 327 327 330 331 330 328 322 322 321 322 324 321 320 319 318 319 319 319 319 318 316 316 318 321 323 323 323
301 301 301 302 301 301 302 306 310 312 315 317 317 319 323 319 323 327 328 330 330 328 323 321 322 325 323 321 320 320 319 319 319 319 319 319 318 317 316 316 317 320 321
300 300 301 302 301 301 301 304 307 309 313 314 317 319 323 323 323 324 326 329 329 328 324 324 324 325 323 321 321 320 320 320 319 319 319 318 319 318 318 318 318 318 318
299 299 300 301 301 301 302 302 306 310 312 314 317 319 323 324 323 324 326 328 329 327 326 324 321 321 322 320 321 321 321 321 320 320 320 319 318 319 319 319 319 319 318
299 299 299 300 301 300 301 301 304 309 310 313 316 319 324 325 324 324 327 327 328 327 325 323 321 320 320 320 321 321 322 322 323 322 322 321 321 320 319 319 320 319 318
299 298 298 299 300 300 300 300 303 307 309 311 315 317 325 326 324 325 326 327 327 326 326 324 322 320 319 320 321 322 323 323 323 322 323 323 321 321 320 319 319 318 316
298 298 297 297 299 299 299 299 299 302 307 308 311 316 317 325 324 324 322 325 325 325 325 324 321 320 321 322 322 321 321 322 321 323 323 322 321 319 318 318 318 316 315
298 297 297 297 298 298 298 298 298 301 305 305 309 311 312 322 324 323 323 326 326 325 324 322 321 321 321 321 322 323 320 322 323 320 317 316 317 319 318 317 316 315 314
298 297 296 296 297 298 298 298 298 301 302 305 308 309 309 314 323 324 324 325 324 324 325 323 322 322 322 322 322 322 318 316 317 316 316 315 316 315 314 313 313 312 312
297 296 297 297 297 298 297 297 298 298 299 299 301 304 305 311 319 322 324 324 324 325 325 325 323 322 323 323 322 323 321 320 317 318 315 316 316 315 314 314 314 312 310
297 296 297 297 297 297 297 297 297 298 299 299 302 303 304 308 314 320 321 324 324 325 324 325 324 324 323 322 322 322 321 321 320 318 317 315 315 313 312 311 308 306 304
297 296 296 296 297 296 296 296 297 297 298 299 300 301 303 305 309 315 318 321 323 324 324 325 324 323 323 323 322 321 320 320 320 319 317 318 315 306 306 305 304 303 301

GFSSE_925_thetae_279.txt.gz
Theta_e
325 328 331 336 337 335 335 335 335 333 332 331 331 334 336 334 334 334 333 334 333 335 336 335 335 335 335 335 333 331 328 327 330 328 329 330 331 331 329 326 323 322 322
324 326 332 335 337 335 335 334 335 334 333 333 332 334 335 334 334 333 332 332 331 332 336 335 334 333 333 332 330 327 323 324 323 325 327 329 330 330 327 324 322 322 322
324 325 329 334 336 335 333 334 334 334 333 332 334 335 336 333 334 333 333 332 331 336 334 332 331 331 330 329 325 325 325 325 326 323 323 326 327 327 325 322 322 326 325
322 324 325 329 334 336 333 333 333 334 333 332 332 335 335 333 333 332 332 332 331 331 330 329 328 329 329 325 323 322 323 323 324 324 323 323 324 325 325 324 322 322 324
320 323 324 325 328 331 335 331 333 333 332 331 331 331 333 334 332 332 332 332 332 330 329 329 328 328 328 325 323 324 325 324 322 321 321 320 321 324 322 323 321 320 321
317 320 323 323 324 327 330 334 332 333 331 330 331 331 333 333 333 333 332 332 332 330 328 328 327 329 328 325 323 324 323 324 322 321 320 320 320 324 322 320 319 320 319
315 317 320 322 323 323 327 329 330 328 329 329 330 330 331 332 332 332 331 331 332 329 329 327 327 328 325 324 323 323 321 321 323 321 320 323 323 323 322 320 319 319 318
314 314 316 319 321 322 324 327 328 328 324 330 330 330 330 331 331 331 331 331 331 329 328 329 327 325 325 325 322 321 319 320 321 321 320 321 325 325 323 319 319 318 318
312 312 313 315 318 320 321 326 327 328 324 329 328 328 329 330 330 330 330 330 331 329 329 327 322 321 321 323 321 320 318 320 321 320 320 319 322 325 322 320 319 318 317
309 309 310 313 315 316 318 322 323 325 327 328 326 326 328 329 329 329 329 329 330 329 328 324 322 321 316 320 321 319 318 319 321 321 319 319 320 322 321 319 317 317 316
306 307 307 310 312 315 316 317 322 322 326 325 325 327 325 327 329 328 329 329 330 329 327 323 322 320 314 313 313 318 318 318 319 320 320 319 319 320 319 319 317 315 311
305 304 304 305 308 311 314 316 318 322 322 322 325 326 327 322 327 326 328 328 329 330 326 323 319 317 314 313 314 318 318 318 318 318 319 319 320 319 318 316 313 314 314
303 303 303 302 303 307 309 313 315 317 320 322 320 322 326 327 324 326 328 329 330 329 327 325 321 317 315 316 318 317 317 317 317 317 316 319 319 319 318 316 316 317 319
302 302 301 301 301 304 306 309 311 314 316 317 320 320 322 326 322 326 327 329 330 329 325 325 321 319 319 316 318 318 318 318 318 318 314 313 315 319 319 320 320 321 322
301 301 301 301 301 301 302 305 309 311 314 315 317 318 319 323 323 324 326 329 329 329 323 325 320 320 321 320 319 318 318 318 318 318 318 317 315 316 318 321 322 322 322
300 300 300 300 301 301 301 302 306 309 312 313 315 317 318 322 322 322 325 329 328 328 323 324 320 322 323 321 320 319 318 318 319 318 319 318 318 317 316 317 318 320 321
300 299 299 300 300 301 301 302 303 308 311 312 312 316 319 320 322 323 325 328 328 328 325 323 321 323 323 321 320 319 319 319 319 319 319 318 318 318 318 318 318 318 318
299 299 298 299 300 300 301 301 302 307 311 312 313 315 317 319 323 320 322 327 327 327 324 321 322 324 323 321 321 320 320 320 320 319 319 319 318 318 319 319 319 319 318
299 298 298 298 299 299 300 300 302 308 310 311 313 314 316 318 323 323 321 324 326 327 324 322 324 324 322 321 320 321 321 321 322 322 322 321 321 320 320 319 319 318 316
299 298 297 297 297 299 299 299 301 306 307 309 311 313 315 320 323 324 323 323 325 326 325 323 321 321 321 320 320 321 321 322 323 323 323 322 321 319 319 319 319 317 316
298 297 297 296 296 298 299 299 299 300 305 308 310 311 315 321 324 324 323 323 325 325 325 324 321 320 319 319 320 321 322 322 323 321 323 323 321 319 318 317 317 316 315
298 297 296 296 297 298 298 298 298 299 303 304 308 309 315 317 323 325 324 323 323 324 325 323 321 320 319 320 321 321 318 320 320 318 316 317 318 318 317 316 315 315 313
297 296 296 297 297 298 297 298 298 300 302 302 304 308 312 315 317 324 322 320 322 323 324 324 322 321 320 321 321 321 316 315 315 315 315 315 315 315 314 314 313 311 310
297 296 296 297 297 297 297 297 298 298 298 300 301 305 314 311 319 323 322 321 322 325 325 322 321 320 321 321 322 322 321 318 314 315 315 314 313 312 312 312 312 309 306
297 296 296 296 297 297 297 297 297 297 298 300 301 304 311 311 314 317 323 323 324 324 324 323 322 322 321 321 322 322 322 320 319 316 314 312 311 310 309 307 306 303 301
296 295 295 295 295 296 296 297 296 297 298 299 300 302 306 308 311 315 320 322 323 324 324 324 324 322 322 322 322 322 322 320 319 317 314 314 312 303 303 302 301 300 299

GFSSE_925_thetae_285.txt.gz
Theta_e
320 323 326 328 332 336 335 335 334 334 332 331 335 335 334 334 333 331 330 329 331 331 332 334 335 335 334 333 332 332 328 326 329 331 330 332 329 326 323 322 327 329 327
318 321 324 326 329 333 336 334 334 334 333 331 334 334 333 333 333 331 331 332 334 336 336 335 334 335 332 330 328 330 329 328 327 330 330 329 327 325 323 322 323 327 325
317 321 323 325 326 330 334 333 333 333 333 332 332 333 334 333 333 332 331 336 337 334 336 336 334 333 330 324 328 328 328 327 328 329 326 325 325 324 327 324 326 324 326
315 319 322 323 325 327 331 334 331 332 332 332 332 334 334 334 333 332 334 333 336 337 335 334 333 330 326 326 327 327 325 323 323 324 325 325 325 324 325 326 327 326 327
314 314 317 319 322 324 328 331 332 331 331 331 330 331 333 334 332 332 333 332 335 335 334 332 332 329 328 329 327 325 323 321 320 320 321 323 325 326 322 322 322 321 321
314 312 314 316 318 322 325 329 331 331 332 331 331 331 330 333 332 332 331 332 332 331 329 330 330 328 326 323 323 321 322 321 320 318 322 321 321 321 321 321 319 319 319
314 311 311 314 316 318 322 324 328 330 331 331 330 330 330 329 330 330 331 332 330 328 330 328 330 329 323 325 325 322 321 320 319 319 318 321 321 320 320 320 319 319 319
311 309 309 311 313 316 319 323 325 327 328 328 328 328 327 328 328 330 331 331 330 329 328 331 329 326 324 324 323 322 321 320 319 321 320 321 322 321 320 319 318 319 317
308 306 306 308 312 313 316 319 322 325 326 327 327 326 324 324 324 326 330 331 330 328 327 330 327 325 323 323 321 319 321 321 320 319 321 323 324 322 320 319 319 318 315
305 304 304 304 307 310 313 316 318 322 323 325 326 323 321 320 322 325 328 331 330 329 326 327 326 325 323 322 319 319 321 321 320 319 319 325 325 323 321 319 317 314 310
304 302 302 301 303 304 309 312 314 318 321 322 325 326 325 322 322 322 327 330 331 328 326 324 323 325 322 321 319 320 320 320 319 319 318 318 321 322 319 317 315 311 313
303 301 300 300 300 302 303 308 311 314 317 321 321 325 324 325 323 324 326 327 329 329 326 323 317 317 323 321 318 319 320 320 320 319 318 317 320 319 318 317 314 314 317
302 301 300 299 299 300 301 303 306 311 314 317 320 322 324 323 322 323 324 326 327 325 326 322 322 319 320 319 317 318 318 318 318 318 318 318 320 319 318 316 317 319 320
302 300 299 298 298 299 300 301 302 306 311 313 315 319 320 324 323 320 320 325 326 326 325 323 320 314 313 315 317 317 318 318 318 317 319 319 318 319 319 319 320 323 323
302 300 299 298 298 298 299 300 301 303 306 310 313 315 317 319 323 322 320 320 326 327 326 321 318 315 314 317 317 317 317 317 316 315 314 314 315 318 320 321 321 322 322
302 300 299 298 298 298 297 299 300 301 303 309 312 313 315 317 320 322 319 318 320 326 324 320 317 316 316 317 317 318 318 317 318 317 316 315 315 316 316 316 319 321 321
301 300 298 298 297 297 296 298 299 300 301 308 310 312 312 315 318 320 318 319 318 323 323 322 317 316 317 317 316 317 318 318 318 318 318 318 317 317 317 317 318 319 319
301 300 298 298 297 296 295 297 299 300 301 307 310 311 312 314 316 319 321 320 324 322 323 322 319 319 318 318 318 318 318 318 318 318 318 318 318 317 318 318 318 318 317
300 299 298 297 296 296 297 298 299 300 302 307 309 310 311 313 314 316 319 322 324 324 324 324 320 321 321 320 319 318 318 319 319 319 319 319 319 319 319 318 318 317 315
300 299 297 296 296 297 298 299 300 300 303 304 308 309 311 312 314 315 317 321 323 323 322 323 321 321 322 321 320 319 319 319 320 320 321 320 320 319 319 318 316 315 314
299 297 296 296 296 298 298 298 299 299 299 304 305 308 310 312 313 314 315 319 321 323 321 323 322 321 321 320 319 319 319 320 321 321 321 321 320 319 319 316 314 313 312
298 297 296 295 297 297 297 297 297 298 300 302 303 306 309 310 311 313 316 318 321 322 323 322 322 320 320 320 320 320 319 319 315 315 317 318 318 318 316 314 313 312 311
297 297 296 296 296 297 297 297 298 298 300 301 302 305 308 310 310 313 317 319 322 321 322 322 321 321 320 319 320 320 316 320 314 313 312 313 314 313 312 311 311 310 307
297 296 295 295 295 296 296 297 297 296 297 298 300 303 307 309 310 311 318 320 322 323 323 322 321 321 321 320 319 320 318 317 315 314 310 307 308 308 307 306 306 305 304
296 296 295 294 295 296 296 296 296 296 297 299 300 303 305 308 309 312 321 321 322 323 323 322 321 321 321 319 319 319 317 316 315 311 314 307 306 304 303 302 303 303 301
296 295 294 294 295 296 296 296 296 296 297 298 299 301 303 306 308 314 319 322 323 323 318 321 322 321 320 320 319 320 320 318 316 313 311 311 307 300 299 299 300 299 299

GFSSE_925_thetae_288.txt.gz
Theta_e
318 318 324 326 328 331 335 334 334 334 332 331 332 334 334 334 334 333 330 331 333 332 334 336 333 333 334 333 333 331 329 330 332 331 332 329 326 324 326 328 328 326 324
316 318 322 324 326 328 332 335 333 333 333 332 331 334 333 333 333 332 330 330 332 331 334 336 335 335 333 332 331 329 328 327 329 331 329 327 326 324 324 325 327 325 323
314 316 319 322 324 327 328 333 333 332 332 332 331 331 334 332 333 333 333 331 335 336 336 335 335 333 331 330 330 329 329 327 330 327 325 325 323 325 325 323 325 326 323
315 312 313 317 320 324 325 329 333 331 331 331 332 332 334 334 332 333 331 334 336 336 336 335 334 331 330 328 329 328 327 327 326 325 325 322 323 327 328 328 327 326 323
315 313 311 313 315 319 323 326 330 333 330 331 331 331 332 335 333 332 331 332 334 334 335 334 332 330 330 327 327 328 322 322 322 323 323 325 324 323 323 322 322 322 321
313 311 310 311 313 315 318 322 325 329 332 331 332 331 331 332 333 332 331 330 334 334 335 333 331 329 329 329 326 324 321 320 319 319 322 322 321 322 321 321 320 320 320
311 309 307 309 311 313 315 319 324 327 329 331 331 331 330 330 332 331 332 331 333 331 330 331 330 328 327 324 322 323 320 320 318 320 321 320 320 321 321 320 320 320 319
309 306 306 306 308 311 313 316 319 324 326 328 328 329 329 329 329 330 331 331 331 328 328 329 330 325 324 326 322 321 320 319 319 318 320 320 321 320 320 319 319 318 316
305 304 304 304 305 308 311 313 316 319 323 326 328 327 327 327 327 324 326 330 331 329 328 329 328 325 324 324 322 321 320 319 320 321 321 322 322 321 320 320 319 316 311
304 303 302 301 301 304 306 310 313 315 320 323 325 326 326 325 324 324 322 326 331 329 328 330 326 326 323 322 322 321 320 320 319 318 321 323 324 322 321 318 314 310 308
303 302 300 299 299 300 303 305 310 312 317 321 322 324 324 323 322 323 323 325 326 328 325 328 325 324 323 321 318 320 321 320 319 319 319 324 323 323 319 316 311 312 315
303 302 300 299 298 298 299 301 304 309 312 316 320 322 325 325 324 322 322 321 327 327 324 325 325 324 322 320 319 320 321 320 319 319 318 318 321 319 318 315 313 316 318
303 302 300 299 298 298 298 300 301 305 309 313 317 320 321 324 324 324 324 325 324 326 325 323 322 324 322 321 319 320 320 319 319 318 318 317 320 319 318 316 317 319 321
302 302 300 299 298 298 297 298 299 301 305 310 312 317 319 321 322 322 322 323 325 324 326 323 318 321 322 319 318 318 318 319 318 318 318 319 319 319 319 319 322 323 322
303 302 301 299 298 297 297 296 298 300 301 305 310 313 316 317 320 322 322 320 322 325 324 322 322 318 319 316 317 318 318 318 317 316 318 318 317 320 320 321 321 322 322
303 302 300 299 298 297 296 295 297 299 300 302 309 311 314 314 317 319 321 321 320 325 325 323 319 314 314 316 316 317 317 316 316 315 314 314 315 316 316 317 320 321 321
303 301 300 298 298 297 296 295 295 298 299 301 307 310 312 312 314 317 319 321 320 320 321 320 315 314 315 316 316 317 317 317 317 317 317 317 316 316 317 317 318 319 319
302 301 299 298 297 296 295 297 298 299 299 302 307 309 311 312 313 315 318 320 321 320 321 320 320 317 315 317 317 317 317 318 318 318 318 318 317 317 317 318 318 318 317
301 300 299 297 296 296 296 299 299 299 300 303 306 308 310 311 312 314 316 317 319 317 321 321 318 317 317 317 316 317 318 318 318 318 318 318 318 318 318 318 318 317 315
300 299 298 297 296 296 298 298 299 299 300 302 305 306 308 310 311 313 314 317 319 321 321 320 320 319 318 317 318 318 318 318 318 319 319 319 319 319 319 318 315 314 313
299 298 297 296 295 297 297 297 298 298 299 302 305 305 306 308 310 312 313 315 317 322 322 320 320 321 321 320 319 318 319 319 319 320 320 320 319 317 317 315 313 312 312
298 297 296 296 296 296 296 297 297 297 299 301 303 304 305 308 309 311 311 314 317 320 321 322 321 321 320 321 319 319 319 315 313 315 317 316 316 315 314 313 312 311 310
297 296 296 295 295 296 296 297 297 298 299 300 303 304 305 307 308 310 311 313 316 321 322 321 321 321 320 319 320 319 318 320 313 310 310 311 310 311 310 310 308 309 307
297 296 295 294 294 295 296 296 296 296 296 298 300 302 304 306 308 309 311 312 316 321 322 322 321 321 320 319 319 319 318 317 314 314 308 306 308 308 308 307 307 305 304
296 296 295 294 295 296 296 296 296 296 297 298 299 301 304 307 309 310 310 313 317 320 322 322 321 321 320 319 319 319 316 315 314 312 313 304 303 303 305 304 303 303 302
295 295 294 294 295 295 296 296 296 297 296 297 298 300 302 305 309 311 311 318 319 321 321 321 321 321 321 320 319 319 318 316 314 311 310 309 305 299 300 301 302 301 299

GFSSE_925_thetae_291.txt.gz
Theta_e
316 316 319 322 329 329 331 334 334 333 333 331 330 333 334 334 334 334 333 336 337 335 336 334 334 335 334 333 333 332 329 332 332 331 329 327 326 330 330 327 325 324 323
314 312 314 318 324 327 328 331 334 333 332 333 330 332 333 334 333 333 331 330 335 333 335 336 335 334 334 333 331 328 329 329 330 329 326 324 325 329 329 327 325 324 324
315 313 311 312 319 323 324 327 331 333 332 332 332 330 333 333 333 333 332 331 332 333 335 336 336 334 333 331 330 328 329 328 330 326 324 324 325 327 327 327 326 324 323
315 313 310 310 315 319 321 324 327 331 333 332 332 331 331 335 334 334 333 330 333 335 335 336 335 332 331 330 330 330 329 328 327 324 323 326 328 329 328 328 326 324 321
314 311 309 308 310 313 317 321 323 327 331 331 331 330 330 333 335 332 333 329 335 336 336 335 334 331 331 330 329 328 327 327 325 324 323 324 325 326 326 325 324 323 321
311 308 306 306 308 310 312 316 319 324 328 331 331 331 330 331 333 335 332 330 333 333 335 334 332 331 329 329 328 324 323 323 323 324 323 323 323 322 322 322 322 321 320
308 306 305 305 306 308 311 312 315 321 325 328 330 331 330 330 330 332 331 331 330 333 333 333 331 330 328 328 326 321 320 319 318 320 321 320 322 322 321 321 321 320 319
305 304 304 303 304 305 307 311 313 316 321 324 327 328 329 329 330 331 331 331 330 332 329 330 330 326 328 326 324 321 319 318 319 320 319 320 321 321 320 320 319 317 314
304 304 302 301 301 301 304 307 311 312 317 320 323 327 327 328 328 328 328 330 330 330 328 330 326 326 325 323 321 320 319 319 319 320 320 321 320 320 320 320 317 313 307
304 303 301 300 299 299 300 303 306 310 313 317 321 324 325 326 326 326 324 323 329 330 327 327 327 325 325 323 321 320 319 319 321 321 321 322 322 320 320 317 312 308 314
303 302 301 300 299 298 298 299 301 305 310 314 318 320 323 324 324 325 324 324 323 328 327 325 327 325 324 322 321 320 320 319 319 319 323 323 324 323 318 314 311 314 317
304 303 302 300 299 298 298 297 298 301 306 310 315 319 321 324 325 324 322 323 323 325 327 329 327 324 321 320 319 320 320 319 319 318 320 322 321 319 317 313 315 318 320
303 303 302 301 299 298 297 297 297 298 301 306 311 315 319 322 324 324 324 324 324 325 326 325 324 324 320 319 319 321 320 319 318 318 318 319 320 318 318 317 319 321 323
303 303 301 301 300 298 297 296 296 296 298 301 306 311 315 318 319 322 323 324 323 326 324 324 323 323 319 320 319 320 319 319 319 318 318 319 319 319 320 321 322 323 323
303 303 302 301 300 298 297 296 295 295 297 299 302 309 312 315 317 319 322 322 323 323 323 323 321 323 321 319 318 319 319 318 318 318 318 319 319 320 321 321 322 322 322
303 303 301 301 299 298 297 296 295 296 296 298 300 306 311 312 314 316 319 320 321 322 322 319 319 320 319 319 318 318 318 317 317 316 318 316 317 318 316 318 321 321 321
303 302 301 300 298 297 297 295 297 299 299 299 301 306 309 310 312 314 317 319 321 321 323 322 321 319 317 317 316 317 316 316 316 315 314 315 315 316 317 318 319 320 321
302 301 300 299 297 297 296 296 299 299 300 299 302 307 308 310 312 312 315 318 321 320 320 317 318 315 316 315 317 316 316 317 316 317 317 317 317 317 317 318 318 317 317
301 300 299 298 297 297 296 297 299 299 299 301 302 305 307 309 310 312 313 315 317 320 319 317 314 314 315 316 316 317 317 318 318 318 318 318 317 317 318 318 316 315 314
300 299 298 297 296 296 296 297 298 299 299 299 302 305 307 308 309 310 313 315 317 320 320 320 318 316 316 317 317 317 318 317 317 317 318 318 318 318 317 316 314 313 312
298 298 297 297 296 295 296 296 298 298 299 301 303 304 306 307 308 310 311 313 315 318 320 320 318 317 317 317 317 317 316 317 318 318 319 319 318 317 315 313 313 312 311
297 297 296 296 295 295 296 296 297 298 299 301 302 303 305 306 308 308 309 312 314 318 320 320 319 320 319 317 318 318 316 313 312 311 316 315 315 314 313 310 311 311 310
297 296 296 295 294 295 296 297 297 298 299 299 300 302 304 307 308 309 310 312 314 317 320 320 320 321 319 319 319 320 319 319 311 308 308 309 310 311 309 308 309 309 308
297 296 295 294 294 295 296 297 296 296 295 297 298 300 303 306 308 309 310 311 313 315 318 321 320 321 320 319 318 319 318 317 316 312 306 304 306 306 306 307 307 307 305
296 295 295 293 294 295 296 296 296 296 296 297 298 300 303 306 307 309 309 309 310 315 319 320 320 320 320 319 319 317 315 315 314 314 311 303 303 304 304 305 305 305 302
295 295 294 293 294 295 296 296 296 296 296 297 298 300 302 304 306 309 310 310 313 315 319 321 321 320 320 320 319 319 318 316 313 313 312 307 304 299 301 301 301 301 300